This is the latest recevied weather packets stored in our database for station/object Seibranz. If no packets are shown the sender has not sent any weather packets the latest 10 day(s).
| Time | Temp. | Humidity | Pressure | Rain* | Wind** | Luminosity | Snow |
|---|---|---|---|---|---|---|---|
| 1778077930 | 13.89° C | 78% | 1004.6 hPa | 0 mm | - | - | - |
| 1778076131 | 15.56° C | 72% | 1004.3 hPa | 0 mm | - | - | - |
| 1778074331 | 13.33° C | 82% | 1004.1 hPa | 0 mm | - | - | - |
| 1778072531 | 13.89° C | 73% | 1005.1 hPa | 0 mm | - | - | - |
| 1778070730 | 15° C | 65% | 1004.7 hPa | 0 mm | - | - | - |
| 1778068930 | 15° C | 69% | 1004.4 hPa | 0 mm | - | - | - |
| 1778067137 | 14.44° C | 70% | 1004.3 hPa | 0 mm | - | - | - |
| 1778065330 | 15° C | 68% | 1004.7 hPa | 0 mm | - | - | - |
| 1778061734 | 13.89° C | 73% | 1005.1 hPa | 0 mm | - | - | - |
| 1778059931 | 13.89° C | 73% | 1005.5 hPa | 0 mm | - | - | - |
| 1778058131 | 13.33° C | 71% | 1005.5 hPa | 0 mm | - | - | - |
| 1778056331 | 13.33° C | 77% | 1005.1 hPa | 0 mm | - | - | - |
| 1778054532 | 12.22° C | 80% | 1005.4 hPa | 0 mm | - | - | - |
| 1778052731 | 11.11° C | 86% | 1005.2 hPa | 0 mm | - | - | - |
| 1778050932 | 11.11° C | 86% | 1005.7 hPa | 0 mm | - | - | - |
| 1778049131 | 11.11° C | 86% | 1005.8 hPa | 0 mm | - | - | - |
| 1778047331 | 10° C | 92% | 1005.5 hPa | 0 mm | - | - | - |
| 1778045531 | 8.89° C | 93% | 1006 hPa | 0 mm | - | - | - |
| 1778043731 | 7.22° C | 93% | 1005.8 hPa | 0 mm | - | - | - |
| 1778041932 | 6.67° C | 93% | 1006.1 hPa | 0 mm | - | - | - |
| 1778040131 | 7.22° C | 93% | 1006.4 hPa | 0 mm | - | - | - |
| 1778038331 | 6.11° C | 92% | 1006.6 hPa | 0 mm | - | - | - |
| 1778036532 | 7.22° C | 92% | 1007 hPa | 0 mm | - | - | - |
| 1778034732 | 7.22° C | 92% | 1007.1 hPa | 0 mm | - | - | - |
| 1778032932 | 7.78° C | 91% | 1007.3 hPa | 0 mm | - | - | - |
* Rain since midnight (hover to see other rain measurements)
** Current wind speed in m/s (hover to see current wind gust speed)